Regional Weather Roundup
Issued by NWS

Home | Current Version | Previous Version | Text Only | Print | Product List | Glossary On
Versions: 1 2 3 4 5 6 7 8 9 10 11 12 13 14 15 16 17 18 19 20 21 22 23 24 25 26 27 28 29 30 31 32 33 34 35 36 37 38 39 40 41 42 43 44 45 46 47 48 49 50
000
ASUS44 KFWD 162015
RWRTX
NORTH TEXAS HOURLY WEATHER ROUNDUP
NATIONAL WEATHER SERVICE FORT WORTH TX
200 PM CST MON JAN 16 2017

NOTE: "FAIR" INDICATES FEW OR NO CLOUDS BELOW 12,000 FEET WITH NO
SIGNIFICANT WEATHER AND/OR OBSTRUCTIONS TO VISIBILITY.

TXZ118-119-162100-
DALLAS/FORT WORTH METROPLEX

CITY           SKY/WX    TMP DP  RH WIND       PRES   REMARKS
DFW AIRPORT    MOSUNNY   64  48  56 W10       29.97F
DALLAS LOVE    MOSUNNY   64  48  56 NW10      29.98F
FTW MEACHAM    SUNNY     63  46  54 W9        29.98S
DAL-EXECUTIVE  SUNNY     65  48  54 NW12      29.97F
FTW-ALLIANCE   MOSUNNY   61  46  57 W9        29.98F
FTW-NAS-JRB    SUNNY     62  47  57 NW9       29.99S
FTW-SPINKS     SUNNY     63  46  55 W12       30.00S
ARLINGTON      SUNNY     64  45  49 W10       29.98F
GRAND PRAIRIE  SUNNY     64  45  48 W7        30.00S
ADDISON        SUNNY     63  48  59 W12G18    29.99F
MESQUITE       SUNNY     64  46  52 W12       29.98F
LANCASTER      SUNNY     64  48  56 NW13      29.98F
$$

TXZ091>094-102>105-117-120-121-131>134-162100-
NORTH CENTRAL TEXAS

CITY           SKY/WX    TMP DP  RH WIND       PRES   REMARKS
SHRMAN/DENISON SUNNY     58  49  71 W16       29.98F
GAINESVILLE    MOSUNNY   55  44  65 SW8       30.00S
BOWIE          SUNNY     56  42  59 W9G21     29.98F
BRIDGEPORT     SUNNY     57  46  66 W8        30.00F
DECATUR        SUNNY    N/A N/A N/A SW10      29.98F
DENTON         SUNNY     59  48  67 W8        29.98F
MCKINNEY       SUNNY     60  50  69 W10       29.98F
BONHAM         SUNNY     59  46  63 W9        29.97S
GREENVILLE     SUNNY     63  45  51 W9G17     29.97S
ROCKWALL       SUNNY     63  47  57 W7G20     29.98S
TERRELL        SUNNY     67  47  48 W10G18    29.97S
WAXAHACHIE     SUNNY     65  49  56 W6        29.98F
CLEBURNE       SUNNY     64  50  59 VRB7G13   30.00S
GRANBURY       SUNNY     63  48  57 W6        30.00S
$$

TXZ083>090-098>101-113>116-127>130-139>142-154-155-162100-
WESTERN NORTH TEXAS

CITY           SKY/WX    TMP DP  RH WIND       PRES   REMARKS
WICHITA FALLS  MOSUNNY   55  36  48 W12G23    29.97F
WF-KICKAPOO    SUNNY     54  36  51 SW6       30.00S
VERNON         SUNNY     55  37  52 W15       29.99S
ABILENE        SUNNY     58  45  62 VRB3      29.99F
ABILENE-DYESS  SUNNY     58  39  49 VRB5      29.98F
GRAHAM         SUNNY     57  45  62 CALM      29.98F
BRECKENRIDGE   SUNNY     60  44  54 W9        29.99F HAZE
CISCO          SUNNY     61  45  55 NW8       29.99F
MINERAL WELLS  SUNNY     59  45  59 W8        29.98F
STEPHENVILLE   SUNNY     65  44  48 W6        30.01S
COMANCHE       SUNNY     65  46  51 NW5       29.99F
BROWNWOOD      SUNNY     64  45  48 CALM      29.99F
COLEMAN        SUNNY     64  43  45 CALM      29.99S
$$

TXZ143>147-156>162-174-175-162100-
CENTRAL TEXAS

CITY           SKY/WX    TMP DP  RH WIND       PRES   REMARKS
WACO           SUNNY     69  46  43 NW7       29.96F
WACO-MCGREGOR  MOSUNNY   68  51  54 NW7       29.97F
HILLSBORO      SUNNY     68  48  49 W9G16     29.97F
CORSICANA      CLOUDY    68  47  46 W8        29.98S
MEXIA          CLOUDY    67  46  46 W8        29.96F
HEARNE         LGT RAIN  60  58  91 N6        29.97S
CAMERON          N/A     66  51  58 N5        29.96S
TEMPLE         PTSUNNY   70  48  45 NW8       29.96F
KILLEEN        SUNNY     69  44  39 NW5       29.95F
KILLEEN-SKYLRK SUNNY     70  45  40 NW5       29.96F
GATESVILLE     SUNNY     70  45  40 W8        29.99F
HAMILTON       SUNNY     68  44  42 NW10      29.99F
LAMPASAS       SUNNY     71  49  45 NW6       29.96F
$$

TXZ095>097-106>112-122>126-135>138-148>153-164>167-162100-
EAST TEXAS

CITY           SKY/WX    TMP DP  RH WIND       PRES   REMARKS
PARIS          SUNNY     66  48  52 W13       29.95F
SULPHUR SPRNGS PTSUNNY   67  47  48 W13       29.98F
MOUNT PLEASANT CLOUDY    63  57  81 W5        29.97S
GILMER         DRIZZLE   61  59  94 CALM      29.96R
MINEOLA        PTSUNNY   64  52  63 NW8       29.96S
TYLER          MOSUNNY   65  54  67 NW7       29.95F
LONGVIEW       PTSUNNY   72  65  78 S13       29.93F
MARSHALL       CLOUDY    70  62  75 S14G23    29.97S
ATHENS         SUNNY     66  46  48 NW5       29.95S
PALESTINE      CLOUDY    66  60  81 N5        29.97F
JACKSONVILLE   DRIZZLE   64  64  97 W3        29.97F
HENDERSON      CLOUDY    71  64  78 S9G20     29.96S
CENTER         LGT RAIN  71  69  95 CALM      29.99S
NACOGDOCHES    PTSUNNY   68  64  88 CALM      29.95F
LUFKIN         CLOUDY    72  68  87 S6        29.95F
$$

SUPPLEMENTAL OBSERVATIONS (CENTRAL)

CITY           SKY/WX    TMP DP  RH WIND       PRES   REMARKS
DENISON DAM      N/A     52  45  76 W16         N/A
CADDO GRASSLND   N/A     63  46  55 W7G15       N/A
PAT MAYSE LAKE   N/A     61  52  72 SW9         N/A
GREENVILLE       N/A     64  48  55 W10         N/A
CEDAR HILL       N/A     66  46  48 W5          N/A
ATHENS           N/A     70  48  46 NW3         N/A
LAKE LIMESTONE   N/A     64  54  68 W5          N/A
MCGREGOR         N/A     72  50  46 NW3         N/A
TEMPLE           N/A     70  45  40 NW2         N/A
$$

SUPPLEMENTAL OBSERVATIONS (WEST)

CITY           SKY/WX    TMP DP  RH WIND       PRES   REMARKS
MILLERS CREEK    N/A     54  41  62 W8          N/A
POSSUM KINGDOM   N/A     61  46  59 W6          N/A
LBJ GRASSLAND    N/A     59  45  58 W7          N/A
GRANBURY         N/A     64  48  55 NW7         N/A
COMANCHE         N/A     66  45  45 W8          N/A
HAMBY            N/A     59  46  63 NW8         N/A
IVIE RESERVOIR   N/A     66  45  45 W7          N/A
COLORADO BEND    N/A     68  43  40 NW8         N/A
$$

SUPPLEMENTAL OBSERVATIONS (EAST)

CITY           SKY/WX    TMP DP  RH WIND       PRES   REMARKS
CLARKSVILLE      N/A     68  50  52 W3          N/A
TEXARKANA        N/A     70  68  94 S5          N/A
CADDO LAKE       N/A     73  63  68 S7G16       N/A
GILMER           N/A     63  57  82 W5          N/A
HENDERSON        N/A     72  64  78 S13G24      N/A
LUFKIN           N/A     72  66  83 MISG        N/A
N SABINE NF      N/A     72  68  88 MISG        N/A
S SABINE NF      N/A     72  66  83 SE2G12      N/A
$$

SUPPLEMENTAL OBSERVATIONS ARE A COLLECTION OF AUTOMATED INSTRUMENTS
THAT ARE MAINTAINED BY A VARIETY OF FEDERAL AND STATE AGENCIES.
CERTAIN ELEMENTS...SUCH AS HUMIDITY VALUES AND SUSTAINED WIND
SPEEDS...MAY BE APPROXIMATED.





USA.gov is the U.S. government's official web portal to all federal, state and local government web resources and services.